Regional Weather Roundup
Issued by NWS Green Bay, WI

Home | Current Version | Previous Version | Text Only | Print | Product List | Glossary On
Versions: 1 2 3 4 5 6 7 8 9 10 11 12 13 14 15 16 17 18 19 20 21 22 23 24 25 26 27 28 29 30 31 32 33 34 35 36 37 38 39 40 41 42 43 44 45 46 47 48 49 50
000
ASUS43 KGRB 291111
RWRGRB

NORTH-CENTRAL AND NORTHEAST WISCONSIN REGIONAL WEATHER ROUNDUP
NATIONAL WEATHER SERVICE GREEN BAY WI
600 AM CDT WED JUL 29 2015

WIZ005-009-010>012-018-019-291200-
NORTH CENTRAL WISCONSIN

CITY           SKY/WX    TMP DP  RH WIND       PRES   REMARKS
IRONWOOD       CLEAR     66  50  55 SW13G21   29.76F
MANITOWISH WTR CLEAR     62  54  75 SW9       29.85S
ARBOR VITAE    CLEAR     64  53  66 SW9       29.87S
EAGLE RIVER    PTCLDY    63  51  65 SW12G17   29.87R
LAND O LAKES   PTCLDY    65  51  60 SW7       29.86S
RHINELANDER    PTCLDY    65  54  67 W9        29.90R
PHILLIPS       CLEAR     63  55  74 SW9       29.87F
ANTIGO         MOCLDY    66  55  67 W8G16     29.92R
TOMAHAWK       PTCLDY    62  54  75 CALM      29.91R
MERRILL        NOT AVBL
$$

WIZ013-073-291200-
NORTHEAST WISCONSIN

CITY           SKY/WX    TMP DP  RH WIND       PRES   REMARKS
IRON MOUNTAIN  MOCLDY    72  59  63 W7        29.83R
MARINETTE      CLOUDY    73  66  78 W7        29.84R
OCONTO         CLOUDY    74  71  89 W14       29.85R
$$

WIZ017-030-035>037-045-291200-
CENTRAL WISCONSIN

CITY           SKY/WX    TMP DP  RH WIND       PRES   REMARKS
MEDFORD        PTCLDY    62  56  80 SW6       29.93R
WAUSAU         MOCLDY    68  57  68 W9        29.91R
MOSINEE        CLEAR     66  59  77 W9        29.95R
MARSHFIELD     MOCLDY    63  56  78 SW6       29.94R
WISC RAPIDS    CLOUDY    70  59  68 W8        29.95R
STEVENS POINT  CLOUDY    69  57  66 W7        29.94R
WAUPACA        CLOUDY    76  58  52 W8        29.92R
SHAWANO        CLOUDY    76  59  55 W6        29.89R
CLINTONVILLE   CLOUDY    73  54  49 W8        29.90R
$$

WIZ038-039-048-051-291200-
FOX VALLEY

CITY           SKY/WX    TMP DP  RH WIND       PRES   REMARKS
NWS GREEN BAY  CLOUDY    75  70  84 W9        29.88R
APPLETON       MOCLDY    73  61  64 W13G21    29.92R
OSHKOSH        CLOUDY    76  65  68 W10       29.91R
FOND DU LAC    CLOUDY    75  71  87 W6        29.92S
$$

WIZ022-050-052-291200-
EAST CENTRAL WISCONSIN

CITY           SKY/WX    TMP DP  RH WIND       PRES   REMARKS
STURGEON BAY   CLOUDY    73  68  83 SW9       29.88R
MANITOWOC      MOCLDY    76  72  87 MISG      29.89R
SHEBOYGAN      CLOUDY    75  71  87 W10       29.90R
$$

LMZ563-521-522-541>543-291200-
LAKESHORE

STATION/POSITION TIME  TEMP    WIND        PRES    VSBY  WAVE
                       AIR SEA DIR/SP/G                  HT/PER
                 (UTC) (F)     (DEG/KT/KT) (MB)    (MI)  (FT/S)
SHEBOYGAN LKSHOR 1100   76     250/ 12/ 14 1012.3R
KEWAUNEE LKSHORE 1000   67     210/  3/  7 1010.5F
ALGOMA MARINA    1012          220/  4/  6   N/A
NORTHPORT PIER   1000   72     170/  2/  6 1009.8F
N MID LAKE BUOY  1050   71 69  200/ 14/ 16 1009.5F         2/ 3
S GREEN BAY BUOY 1100   75 75  240/ 16/ 17 1012.6
SISTER BAY LKSHO 1044   75     230/  9/ 12   N/A
CHAMBERS ISLAND  1000   74     180/  3/ 11 1009.8F
MENOMINEE LKSHOR 1000   75     210/  5/ 11 1010.7F
$$


USA.gov is the U.S. government's official web portal to all federal, state and local government web resources and services.